Sarasota, FL

12:58 AM EDT on October 24, 2019 (GMT -0400)
Sarasota-bradenton

Weather History for KSRQ - August, 2019

Change the Weather History Date:

Thursday, August 29, 2019

  Actual Average Record
Temperature  
Mean Temperature 86 °F 82 °F  
Max Temperature 96 °F 90 °F 98 °F (1938)
Min Temperature 77 °F 75 °F 68 °F (1960)
Degree Days  
Heating Degree Days 0 0  
Month to date heating degree days 0 0  
Since 1 June heating degree days 0 0  
Since 1 July heating degree days 0 0  
Cooling Degree Days 22 17  
Month to date cooling degree days 542 493  
Year to date cooling degree days 2813 2255  
Since 1 June cooling degree days 1656 1504  
Growing Degree Days 36 (Base 50)    
Moisture  
Dew Point 76 °F    
Average Humidity 77    
Maximum Humidity 97    
Minimum Humidity 52    
Precipitation  
Precipitation 0.09 in 0.30 in 2.64 in (1954)
Month to date precipitation 12.52 8.56  
Year to date precipitation 41.05 37.75  
Sea Level Pressure  
Sea Level Pressure 29.89 in    
Wind  
Wind Speed 4 mph ()    
Max Wind Speed 21 mph    
Max Gust Speed 28 mph    
Visibility 10.0 miles    
Events Thunderstorm    
T = Trace of Precipitation, MM = Missing Value Source: Averaged Metar Reports

Daily Weather History Graph

Daily Weather History Graph

Search for Another Location

Airport or City:

Astronomy

Aug. 29, 2019 Rise Set
Actual Time 7:07 AM EDT 7:54 PM EDT
Civil Twilight 6:43 AM EDT 8:17 PM EDT
Nautical Twilight 6:15 AM EDT 8:45 PM EDT
Astronomical Twilight 5:47 AM EDT 9:14 PM EDT
Moon 6:03 AM EDT (8/29) 7:42 PM EDT (8/29)
Length of Visible Light 13h 33m
Length of Day
12h 46m
Waning Crescent, 1% of the Moon is Illuminated
Aug 29
Waning Crescent
Aug 30
New
Sep 5
First Quarter
Sep 14
Full
Sep 21
Last Quarter

Hourly Weather History & Observations

Time (EDT) Temp. Heat Index Dew Point Humidity Pressure Visibility Wind Dir Wind Speed Gust Speed Precip Events Conditions
12:53 AM 80.1 °F 85.4 °F 75.9 °F 87% 29.91 in 10.0 mi Calm Calm - N/A   Clear
1:53 AM 79.0 °F - 75.9 °F 90% 29.89 in 10.0 mi East 3.5 mph - N/A   Clear
2:53 AM 78.1 °F - 75.9 °F 93% 29.88 in 10.0 mi Calm Calm - N/A   Partly Cloudy
3:53 AM 78.1 °F - 75.9 °F 93% 29.86 in 10.0 mi ESE 3.5 mph - N/A   Scattered Clouds
4:53 AM 79.0 °F - 75.9 °F 90% 29.86 in 10.0 mi ENE 3.5 mph - 0.01 in   Mostly Cloudy
5:53 AM 78.1 °F - 77.0 °F 96% 29.87 in 10.0 mi Calm Calm - N/A   Clear
6:36 AM 78.1 °F - 77.0 °F 96% 29.88 in 10.0 mi Calm Calm - N/A   Mostly Cloudy
6:53 AM 78.1 °F - 77.0 °F 96% 29.89 in 10.0 mi Calm Calm - N/A   Mostly Cloudy
7:08 AM 78.1 °F - 77.0 °F 96% 29.89 in 10.0 mi Calm Calm - N/A   Scattered Clouds
7:53 AM 80.1 °F 86.4 °F 78.1 °F 94% 29.89 in 10.0 mi NE 4.6 mph - N/A   Clear
8:53 AM 84.9 °F 97.5 °F 79.0 °F 82% 29.91 in 10.0 mi Calm Calm - N/A   Clear
9:53 AM 88.0 °F 101.3 °F 78.1 °F 72% 29.93 in 10.0 mi East 8.1 mph - N/A   Partly Cloudy
10:53 AM 90.0 °F 101.3 °F 75.9 °F 63% 29.94 in 10.0 mi NE 8.1 mph - N/A   Partly Cloudy
11:53 AM 91.9 °F 103.2 °F 75.0 °F 58% 29.94 in 10.0 mi ENE 11.5 mph - N/A   Scattered Clouds
12:53 PM 93.0 °F 101.9 °F 73.0 °F 52% 29.92 in 10.0 mi Variable 4.6 mph - N/A   Clear
1:53 PM 93.9 °F 105.4 °F 75.0 °F 54% 29.90 in 10.0 mi North 9.2 mph - N/A   Mostly Cloudy
2:53 PM 93.9 °F 105.4 °F 75.0 °F 54% 29.87 in 10.0 mi North 12.7 mph - N/A   Scattered Clouds
3:53 PM 93.9 °F 105.4 °F 75.0 °F 54% 29.86 in 10.0 mi Variable 6.9 mph - N/A   Scattered Clouds
4:53 PM 93.0 °F 104.6 °F 75.0 °F 56% 29.84 in 10.0 mi NW 12.7 mph - N/A   Scattered Clouds
5:53 PM 91.9 °F 103.2 °F 75.0 °F 58% 29.84 in 10.0 mi NE 8.1 mph - N/A Thunderstorm Mostly Cloudy
6:53 PM 82.9 °F 89.4 °F 73.9 °F 74% 29.86 in 10.0 mi ESE 12.7 mph - 0.08 in Thunderstorm Scattered Clouds
7:25 PM 82.0 °F 87.9 °F 73.9 °F 76% 29.88 in 10.0 mi East 8.1 mph - N/A   Clear
7:53 PM 82.9 °F 89.4 °F 73.9 °F 74% 29.90 in 10.0 mi East 3.5 mph - N/A   Partly Cloudy
8:53 PM 82.0 °F 88.6 °F 75.0 °F 79% 29.91 in 10.0 mi ENE 4.6 mph - N/A   Clear
9:53 PM 82.9 °F 90.8 °F 75.9 °F 79% 29.93 in 10.0 mi ENE 6.9 mph - N/A   Clear
10:53 PM 82.9 °F 90.8 °F 75.9 °F 79% 29.94 in 10.0 mi ENE 5.8 mph - N/A   Clear
11:53 PM 82.9 °F 91.8 °F 77.0 °F 82% 29.94 in 10.0 mi East 5.8 mph - N/A   Clear